Location: Sungai Juaw
(2.6833°N, 113.5333°E)
Time: 22:50:43
(UTC+00:00)

Atlas Centaur 2 - Pass Details

Date: 04 August 2024
Orbit: 457 x 1271 km, 30.4° (Epoch: 19 September)

Event Time Altitude Azimuth Distance (km) Brightness Sun altitude
Exits shadow 22:03:06 - 277° (W) 3,856 5.0 -6.1°
Reaches altitude 10° 22:05:19 10° 270° (W) 3,239 4.6 -5.6°
Maximum altitude 22:12:23 31° 212° (SSW) 2,061 3.8 -3.9°
Drops below altitude 10° 22:19:15 10° 153° (SSE) 3,130 5.3 -2.2°
Sets 22:22:23 0° 143° (SE) 4,005 6.0 -1.5°
